Snowfall_Accumulation
3.7 3.9 3.7 4.9 5.5 4.1 4.8 4.8 3.3 3.2 0.0 0.0 0.0 0.0 0.0 0.0 0.0 0.0 0.0 0.0 0.0 0.0
3.1 2.8 3.0 3.4 3.6 5.0 4.8 4.3 3.3 4.2 2.8 3.0 3.4 0.0 0.0 0.0 0.0 0.0 0.0 0.0 0.0 0.0
3.2 2.9 2.7 2.0 2.1 2.5 3.5 4.3 3.9 3.0 3.3 3.2 5.0 5.5 5.8 4.1 4.0 2.1 0.0 0.0 0.0 0.0
3.0 2.7 2.0 1.8 1.7 1.7 1.4 1.7 2.5 3.0 3.2 2.1 2.9 4.0 5.0 5.2 6.6 7.6 8.4 3.1 3.0 2.6
3.5 3.0 2.6 2.4 1.9 1.4 1.3 0.9 1.2 1.6 2.3 2.8 3.1 2.7 2.7 3.7 4.5 5.0 5.4 6.3 7.4 8.0
3.1 3.4 3.8 4.0 4.0 3.2 2.2 1.5 0.7 0.7 0.6 1.5 2.1 2.4 2.4 1.9 1.8 3.2 3.5 3.7 4.3 5.4
2.1 2.4 2.9 3.1 3.3 3.7 3.8 3.3 3.1 2.1 1.3 1.3 1.0 1.4 1.8 1.9 2.0 1.9 1.7 1.2 2.1 2.3
0.8 1.1 1.4 1.7 1.8 1.7 2.3 2.8 3.1 3.0 2.9 2.7 2.7 2.4 1.6 1.6 1.4 1.3 1.6 1.7 1.7 1.8
0.4 0.5 0.6 0.7 0.8 1.1 1.3 1.6 1.7 2.0 2.1 2.2 2.6 3.1 3.7 3.1 2.5 2.3 1.2 0.8 0.5 0.5
0.0 0.0 0.3 0.4 0.5 0.6 0.8 0.8 0.8 1.0 1.4 1.6 1.6 2.3 3.1 4.1 2.9 1.7 1.5 1.5 1.4 1.1
0.0 0.0 0.0 0.0 0.1 0.3 0.4 0.4 0.6 0.6 0.6 0.6 0.4 1.0 2.1 3.0 3.5 2.3 1.7 1.3 0.9 1.0
0.0 0.0 0.0 0.0 0.0 0.0 0.1 0.1 0.2 0.2 0.4 0.4 0.1 0.1 1.2 2.1 1.7 1.1 0.5 0.4 0.9 1.0
0.0 0.0 0.0 0.0 0.0 0.0 0.0 0.0 0.0 0.0 0.0 0.1 0.3 0.1 0.4 1.4 1.9 1.2 0.5 0.0 0.0 0.1
0.0 0.0 0.0 0.0 0.0 0.0 0.0 0.0 0.0 0.0 0.0 0.0 0.0 0.0 0.0 0.4 1.2 1.4 0.7 0.3 0.1 0.1